EW3176 Weather Reports


Display with metric or nautical units.
time (UTC)temp
F
wind
direction
speed
MPH
gust
MPH
rain 1hr
in
rain 24hr
in
rain mn
in
humidity
%
barometer
mb
20260901074521 78 0.0 0.0 0.00 0.00 0.00 86 1021.3
20260901073524 78 0.0 0.0 0.00 0.00 0.00 86 1021.6
20260901072521 78 0.0 0.0 0.00 0.00 0.00 86 1021.7
20260901071521 78 0.0 0.0 0.00 0.00 0.00 85 1021.7
20260901070521 78 0.0 1.0 0.00 0.00 0.00 85 1021.8
20260901065541 78 0.0 0.0 0.00 0.00 0.00 85 1021.8
20260901064521 79 0.0 0.0 0.00 0.00 0.00 85 1021.8
20260901063521 79 0.0 0.0 0.00 0.00 0.00 84 1021.9
20260901063023 79 0.0 0.0 0.00 0.00 0.00 83 1021.9
20260901062021 79 0.0 0.0 0.00 0.00 0.00 82 1021.9
20260901061022 80 0.0 0.0 0.00 0.00 0.00 82 1021.9
20260901060021 80 0.0 0.0 0.00 0.00 0.00 81 1022.0
20260901055041 80 0.0 0.0 0.00 0.00 0.00 80 1022.0
20260901054042 80 0.0 0.0 0.00 0.00 0.00 80 1022.0
20260901053021 81 0.0 0.0 0.00 0.00 0.00 79 1022.1
20260901052021 81 0.0 0.0 0.00 0.00 0.00 79 1022.0
20260901051021 81 0.0 0.0 0.00 0.00 0.00 80 1022.1
20260901050021 81 0.0 0.0 0.00 0.00 0.00 80 1022.1
20260901045022 81 0.0 0.0 0.00 0.00 0.00 79 1022.2
20260901044021 81 0.0 0.0 0.00 0.00 0.00 80 1022.1
20260901043021 81 0.0 0.0 0.00 0.00 0.00 80 1022.0
20260901042102 81 0.0 0.0 0.00 0.00 0.00 81 1022.0
20260901041021 81 0.0 0.0 0.00 0.00 0.00 82 1022.0
20260901040120 81 0.0 0.0 0.00 0.00 0.00 82 1022.0
20260901035021 81 0.0 0.0 0.00 0.00 0.00 81 1021.9
20260901034021 81 0.0 0.0 0.00 0.00 0.00 81 1021.9
20260901033020 81 0.0 0.0 0.00 0.00 0.00 80 1021.9
20260901032021 81 0.0 0.0 0.00 0.00 0.00 79 1021.8
20260901031021 81 0.0 0.0 0.00 0.00 0.00 79 1021.7
20260901030021 82 0.0 0.0 0.00 0.00 0.00 78 1021.8
20260901025043 82 0.0 0.0 0.00 0.00 0.00 78 1021.8
20260901024021 82 0.0 0.0 0.00 0.00 0.00 77 1021.8
20260901023040 82 0.0 0.0 0.00 0.00 0.00 77 1021.8
20260901022021 83 0.0 0.0 0.00 0.00 0.00 76 1021.7
20260901021020 83 0.0 0.0 0.00 0.00 0.00 77 1021.6
20260901015020 83 0.0 0.0 0.00 0.00 0.00 76 1021.6
20260901014020 83 0.0 0.0 0.00 0.00 0.00 76 1021.5
20260901013022 83 0.0 0.0 0.00 0.00 0.00 76 1021.5
20260901012020 83 0.0 0.0 0.00 0.00 0.00 75 1021.4
20260901011022 83 0.0 0.0 0.00 0.00 0.00 75 1021.3
20260901010022 83 0.0 0.0 0.00 0.00 0.00 74 1021.1
20260901005022 84 0.0 0.0 0.00 0.00 0.00 73 1020.9
20260901004020 84 0.0 0.0 0.00 0.00 0.00 72 1020.8
20260901003020 84 0.0 0.0 0.00 0.00 0.00 70 1020.7
20260901002022 85 0.0 0.0 0.00 0.00 0.00 69 1020.6
20260901001022 85 0.0 0.0 0.00 0.00 0.00 67 1020.5
20260901000021 86 0.0 0.0 0.00 0.00 0.00 66 1020.5
20260831235020 87 0.0 0.0 0.00 0.00 0.00 65 1020.6
20260831234022 87 0.0 0.0 0.00 0.00 0.00 62 1020.5
20260831233022 88 0.0 0.0 0.00 0.00 0.00 63 1020.4
20260831232020 89 0.0 0.0 0.00 0.00 0.00 63 1020.5
20260831231246 89 0.0 0.0 0.00 0.00 0.00 62 1020.5
20260831230544 89 0.0 0.0 0.00 0.00 0.00 61 1020.5
20260831225522 90 0.0 0.0 0.00 0.00 0.00 60 1020.4
20260831224542 90 0.0 0.0 0.00 0.00 0.00 58 1020.6
20260831223520 90 0.0 1.0 0.00 0.00 0.00 59 1020.6
20260831222543 91 0.0 1.0 0.00 0.00 0.00 58 1020.6
20260831221522 91 0.0 3.0 0.00 0.00 0.00 56 1020.7
20260831220522 91 0.0 1.0 0.00 0.00 0.00 57 1020.6
20260831215602 92 0.0 0.0 0.00 0.00 0.00 57 1020.5
20260831214522 92 0.0 0.0 0.00 0.00 0.00 58 1020.6
20260831213542 92 0.0 0.0 0.00 0.00 0.00 56 1020.7
20260831212524 92 0.0 0.0 0.00 0.00 0.00 55 1020.7
20260831211542 93 0.0 1.0 0.00 0.00 0.00 52 1020.8
20260831210520 93 0.0 1.0 0.00 0.00 0.00 57 1020.9
20260831205522 93 0.0 1.0 0.00 0.00 0.00 54 1020.9
20260831204522 94 0.0 1.0 0.00 0.00 0.00 54 1021.0
20260831203522 95 293 1.0 5.0 0.00 0.00 0.00 50 1021.2
20260831202522 95 0.0 3.0 0.00 0.00 0.00 55 1021.2
20260831201522 95 0.0 3.0 0.00 0.00 0.00 53 1021.2
20260831200522 94 0.0 1.0 0.00 0.00 0.00 51 1021.2
20260831195522 95 0.0 2.0 0.00 0.00 0.00 51 1021.3
20260831194522 96 0.0 1.0 0.00 0.00 0.00 51 1021.3
20260831193543 96 0.0 1.0 0.00 0.00 0.00 51 1021.5
20260831192522 95 0.0 3.0 0.00 0.00 0.00 50 1021.6
20260831191522 95 0.0 2.0 0.00 0.00 0.00 49 1021.8
20260831190602 96 0.0 1.0 0.00 0.00 0.00 49 1021.9
20260831185542 95 0.0 3.0 0.00 0.00 0.00 51 1022.1
20260831184523 95 0.0 3.0 0.00 0.00 0.00 48 1022.2
20260831183543 95 293 1.0 4.0 0.00 0.00 0.00 49 1022.2
20260831182522 94 0.0 3.0 0.00 0.00 0.00 51 1022.4
20260831181523 95 68 1.0 3.0 0.00 0.00 0.00 47 1022.4
20260831180521 95 0.0 2.0 0.00 0.00 0.00 53 1022.5
20260831175545 93 68 1.0 4.0 0.00 0.00 0.00 53 1022.6
20260831174523 94 68 1.0 3.0 0.00 0.00 0.00 55 1022.6
20260831173522 94 45 1.0 4.0 0.00 0.00 0.00 56 1022.7
20260831172522 94 0.0 4.0 0.00 0.00 0.00 59 1022.7
20260831171522 94 0.0 1.0 0.00 0.00 0.00 59 1022.7
20260831170522 94 0.0 1.0 0.00 0.00 0.00 60 1022.9
20260831165522 94 0.0 2.0 0.00 0.00 0.00 60 1023.0
20260831164521 94 0.0 3.0 0.00 0.00 0.00 63 1023.0
20260831163521 94 0.0 1.0 0.00 0.00 0.00 63 1023.0
20260831162522 92 0.0 2.0 0.00 0.00 0.00 62 1023.1
20260831161523 92 0.0 2.0 0.00 0.00 0.00 61 1023.3
20260831160521 94 0.0 4.0 0.00 0.00 0.00 63 1023.3
20260831155521 93 0.0 2.0 0.00 0.00 0.00 63 1023.5
20260831154542 92 0.0 1.0 0.00 0.00 0.00 67 1023.5
20260831153522 92 0.0 2.0 0.00 0.00 0.00 67 1023.8
20260831152521 91 0.0 2.0 0.00 0.00 0.00 67 1023.7
20260831151601 91 0.0 1.0 0.00 0.00 0.00 68 1023.8
20260831150542 91 0.0 1.0 0.00 0.00 0.00 68 1023.8
20260831145521 91 0.0 1.0 0.00 0.00 0.00 68 1023.8
20260831144521 90 0.0 1.0 0.00 0.00 0.00 68 1023.9
20260831143544 90 0.0 2.0 0.00 0.00 0.00 70 1023.8
20260831142521 89 338 1.0 3.0 0.00 0.00 0.00 70 1023.7
20260831141521 89 0.0 2.0 0.00 0.00 0.00 74 1023.6
20260831140521 89 0.0 1.0 0.00 0.00 0.00 73 1023.6
20260831135521 88 0.0 1.0 0.00 0.00 0.00 74 1023.5
20260831134521 86 0.0 2.0 0.00 0.00 0.00 76 1023.5
20260831133521 86 0.0 1.0 0.00 0.00 0.00 76 1023.6
20260831132523 84 315 1.0 3.0 0.00 0.00 0.00 80 1023.6
20260831131529 83 0.0 1.0 0.00 0.00 0.00 83 1023.5
20260831130522 82 0.0 2.0 0.00 0.00 0.00 84 1023.3
20260831125521 80 0.0 2.0 0.00 0.00 0.00 87 1023.3
20260831124521 78 0.0 3.0 0.00 0.00 0.00 91 1023.5
20260831123542 75 23 1.0 4.0 0.00 0.00 0.00 94 1023.5
20260831122522 74 0.0 2.0 0.00 0.00 0.00 96 1023.5
20260831121521 73 0.0 0.0 0.00 0.00 0.00 96 1023.2
20260831120521 73 0.0 1.0 0.00 0.00 0.00 97 1023.5
20260831120020 73 0.0 1.0 0.00 0.00 0.00 97 1023.4
20260831115041 72 0.0 0.0 0.00 0.00 0.00 97 1023.5
20260831114021 72 0.0 0.0 0.00 0.00 0.00 99 1023.5
20260831113020 71 0.0 0.0 0.00 0.00 0.00 99 1023.3
20260831112021 69 0.0 0.0 0.00 0.00 0.00 98 1023.2
20260831111021 69 0.0 0.0 0.00 0.00 0.00 98 1023.2
20260831110041 69 0.0 0.0 0.00 0.00 0.00 98 1023.2
20260831105520 69 0.0 0.0 0.00 0.00 0.00 98 1023.2
20260831104520 69 0.0 0.0 0.00 0.00 0.00 98 1023.1
20260831103521 69 0.0 0.0 0.00 0.00 0.00 98 1023.0
20260831102520 69 0.0 0.0 0.00 0.00 0.00 98 1022.9
20260831101520 69 0.0 0.0 0.00 0.00 0.00 98 1022.9
20260831100521 69 0.0 0.0 0.00 0.00 0.00 97 1023.1
20260831095523 69 0.0 0.0 0.00 0.00 0.00 97 1023.0
20260831094521 70 0.0 0.0 0.00 0.00 0.00 97 1022.9
20260831093541 70 0.0 0.0 0.00 0.00 0.00 97 1022.9
20260831092520 70 0.0 0.0 0.00 0.00 0.00 98 1022.9
20260831091521 70 0.0 0.0 0.00 0.00 0.00 97 1022.7
20260831090521 70 0.0 0.0 0.00 0.00 0.00 97 1022.7
20260831085520 70 0.0 0.0 0.00 0.00 0.00 97 1022.6
20260831084520 70 0.0 0.0 0.00 0.00 0.00 97 1022.8
20260831084020 70 0.0 0.0 0.00 0.00 0.00 97 1022.8
20260831083021 70 0.0 0.0 0.00 0.00 0.00 97 1022.9
20260831082040 70 0.0 0.0 0.00 0.00 0.00 97 1022.8
20260831081020 70 0.0 0.0 0.00 0.00 0.00 97 1022.9
20260831080024 71 0.0 0.0 0.00 0.00 0.00 97 1022.9